TimeMDT,TemperatureF,Dew PointF,Humidity,Sea Level PressureIn,VisibilityMPH,Wind Direction,Wind SpeedMPH,Gust SpeedMPH,PrecipitationIn,Events,Conditions,WindDirDegrees,DateUTC
12:00 AM,43,30,48,,,SW,16.1,,,,,220,2012-10-07 06:00:00
12:00 AM,43.0,30.0,60,-9999,-9999.0,SW,16.1,25.3,N/A,,Unknown,220,2012-10-07 06:00:00
1:00 AM,43.2,29.1,58,-9999,-9999.0,SW,19.6,28.8,N/A,,Unknown,230,2012-10-07 07:00:00
2:00 AM,42.8,28.8,58,-9999,-9999.0,SW,19.6,34.5,N/A,,Unknown,220,2012-10-07 08:00:00
3:00 AM,42.4,28.2,57,-9999,-9999.0,SSW,20.7,33.4,N/A,,Unknown,210,2012-10-07 09:00:00
4:00 AM,43.0,27.1,54,-9999,-9999.0,SW,19.6,28.8,N/A,,Unknown,220,2012-10-07 10:00:00
5:00 AM,42.3,27.0,55,-9999,-9999.0,SW,23.0,32.2,N/A,,Unknown,230,2012-10-07 11:00:00
6:00 AM,44,27,38,,,SW,20.7,,,,,220,2012-10-07 12:00:00
6:00 AM,43.5,26.6,51,-9999,-9999.0,SW,20.7,34.5,N/A,,Unknown,220,2012-10-07 12:00:00
7:00 AM,44.2,25.2,47,-9999,-9999.0,SW,23.0,33.4,N/A,,Unknown,230,2012-10-07 13:00:00
8:00 AM,42.6,25.5,51,-9999,-9999.0,SW,26.5,36.8,N/A,,Unknown,230,2012-10-07 14:00:00
9:00 AM,44.4,25.9,48,-9999,-9999.0,WSW,23.0,36.8,N/A,,Unknown,240,2012-10-07 15:00:00
10:00 AM,47.5,26.1,43,-9999,-9999.0,SW,23.0,33.4,N/A,,Unknown,230,2012-10-07 16:00:00
12:00 PM,52,28,27,,,SSW,19.6,,,,,210,2012-10-07 18:00:00
12:00 PM,52.2,28.2,40,-9999,-9999.0,SSW,19.6,28.8,N/A,,Unknown,210,2012-10-07 18:00:00
1:00 PM,53.4,28.9,39,-9999,-9999.0,SW,17.3,27.6,N/A,,Unknown,230,2012-10-07 19:00:00
2:00 PM,55.4,28.9,36,-9999,-9999.0,SW,17.3,24.2,N/A,,Unknown,230,2012-10-07 20:00:00
3:00 PM,56.1,28.9,35,-9999,-9999.0,SW,18.4,26.5,N/A,,Unknown,220,2012-10-07 21:00:00
4:00 PM,55.2,28.8,36,-9999,-9999.0,SW,18.4,26.5,N/A,,Unknown,230,2012-10-07 22:00:00
5:00 PM,54.9,29.3,38,-9999,-9999.0,SW,19.6,27.6,N/A,,Unknown,230,2012-10-07 23:00:00
6:00 PM,53,29,27,,,SW,17.3,,,,,230,2012-10-08 00:00:00
6:00 PM,52.9,28.9,40,-9999,-9999.0,SW,17.3,26.5,N/A,,Unknown,230,2012-10-08 00:00:00
7:00 PM,50.2,29.5,45,-9999,-9999.0,SW,17.3,25.3,N/A,,Unknown,230,2012-10-08 01:00:00
8:00 PM,48.2,30.2,50,-9999,-9999.0,SW,13.8,20.7,N/A,,Unknown,220,2012-10-08 02:00:00
9:00 PM,48.7,30.0,48,-9999,-9999.0,SSW,10.4,17.3,N/A,,Unknown,210,2012-10-08 03:00:00
10:00 PM,47.8,30.2,50,-9999,-9999.0,SSW,13.8,-,N/A,,Unknown,200,2012-10-08 04:00:00
11:00 PM,46.0,31.1,56,-9999,-9999.0,SSW,11.5,-,N/A,,Unknown,200,2012-10-08 05:00:00